Find Starlink 5623

NORAD ID: 55405 Int'l Des: 2023-014 Owner: SPXS Country: US Constellation: starlink operational
LEOCIRCULAR

リアルタイム位置

3D地球を読み込み中...

Starlink 5623について

説明を読み込み中...

次回通過

Passes for default location (London). Set your location on the main map for personalized predictions.

高度履歴

Loading altitude history...

軌道要素

1 55405U 23014Q 26120.89046961 .00000588 00000-0 57085-4 0 9993
2 55405 69.9983 292.8752 0003098 268.0502 92.0303 14.98332219179874
Epoch: Apr 30, 2026 • Age: 13 hours

現在のステータス

高度 577.3 km
速度 7.57 km/s
衛星直下点 34.69°N, 75.2°E
打ち上げ日 Jan 31, 2023
運用期間 3.2 years
タイプ internet

技術仕様

分類 Payload
質量 305.00 kg
乾燥質量 290.00 kg
総質量 305.00 kg
長さ 0.20 m
直径 2.80 m
スパン 9.00 m
形状 Box + pan
製造者 SPXS
バスタイプ Starlink
フェーズステータス In Orbit
所有者/国 SPXS/US

Most Searched